STARLINK-33818, 63502

Orbit data source: Space-Track

STARLINK-33818, 63502 is a payload satellite owned by SpaceX/Seattle (US) in LEO that was launched on Mon, 07 Apr 2025 UTC via an FALCON 9 launch vehicle from the Air Force Western Test Range (AFWTR). Payload-class satellites include a variety of spacecraft equipped with specific instruments for various scientific and technological missions. These include communications satellites like Starlink; space stations such as the ISS; scientific satellites like the Hubble; Earth observation satellites from companies like Planet Labs, Umbra, and HawkEye 360; GPS; miniature CubeSats for education and research; and military/defense satellites.

Loading next visibility...
Identifier
63502, 2025-071K
Orbit
LEO
Last TLE update
13 hours ago
Origin
Manufacturer
SpaceX/Seattle
Mission
Operational Commercial Communications
Bus & Motor
STARLINK V2MO, Unknown motor
Mass
575 kg wet, ~530 kg dry
Launch date (UTC)
2025-04-07 (1 month ago)
Launch vehicle
FALCON 9
Launch site
Air Force Western Test Range (AFWTR)
Object type
Payload
Rocket body
Debris
Shape & HBR
Box + 1 Pan, 29 m
Radar Cross Section
41.120 m², Large (>1 m²)

Expand to show TLE details & history

TLE from 13 hours ago
0 STARLINK-33818
1 63502U 25071K   25128.83711056  .00003941  00000-0  79258-4 0  9992
2 63502  53.1603 120.3293 0002708 132.3410 227.7829 15.49174030  6037
Epoch: 2025-05-08T20:05Z
Definitive object data (Epoch: 2025-05-08T20:05:26.352Z)
Latitude
0.00001°
Longitude
-47.93238°
Altitude
421.285 km
Speed
7.659 km/s
True Right ascension
08h 01m 19s
True Declination
0° 00' 00"
Sunlit
Object was in daylight at TLE epoch
Visualization TLE readout
Latitude
5.87298°
Longitude
125.05682°
Altitude
418.022 km
Speed
7.663 km/s
Apparent Right ascension
22h 33m 38s
Apparent Declination
-42° 07' 12"
Sunlit
Object is in daylight
Visualization observer readout
Local Sidereal Time
17:22:25
Azimuth
130.307° SE
Elevation
-18.068°
Doppler factor
1
Orbital elements
Apogee altitude
421.24 km
Perigee altitude
417.559 km
Semi-major axis
6,797.536 km
Eccentricity
0.0002708
Inclination
53.1603°
RAAN
120.3293°
Arg. of periapsis
132.341°
True anomaly
227.75992°
Mean anomaly
227.7829°
Eccentric anomaly
227.77141°
Mean motion
3.87272 °/min
BSTAR
0.000079258
Orbital period
92.96 mins
Loading maneuver chart data...
Loading SW <> Apogee altitude chart data...
Loading historical data...
Loading historical data...
Loading historical data...
Loading historical data...
Loading historical data...
Loading historical data...
Loading historical data...

STARLINK-33818 Visibility forecast

Observer location: undefined°, undefined°

Span
Click to sort rows by Start time (UTC) header in descending order
Start Az.
Max El. time (UTC)
Max El. Az.
Max El.
End time (UTC)
End Az.
5 mins2025-05-10 01:41:08.439Z213.808° SW2025-05-10 01:43:08.439Z177.559° S38.047°2025-05-10 01:46:08.439Z59.513° ENE
4 mins2025-05-10 08:12:08.439Z337.8° N2025-05-10 08:13:08.439Z9.331° NNE33.247°2025-05-10 08:16:08.439Z105.432° ESE
|